Terminal Aerodrome Forecast
Issued by NWS

Current Version | Previous Version | Graphics & Text | Print | Product List | Glossary On
Versions: 1 2 3 4 5 6 7 8 9 10 11 12 13 14 15 16 17 18 19 20 21 22 23 24 25 26 27 28 29 30 31 32 33
677
FTUS41 KRNK 191120
TAFLWB
TAF
KLWB 191120Z 1912/2012 VRB03KT P6SM BKN008
     FM191500 VRB03KT P6SM SCT015
     FM191700 23004KT P6SM SCT250
     FM200100 00000KT P6SM BKN080
     FM200300 00000KT P6SM VCSH OVC080
     FM200700 VRB03KT P6SM VCSH OVC015
     FM200800 VRB03KT 6SM -RA BR OVC015=

USA.gov is the U.S. government's official web portal to all federal, state and local government web resources and services.